Concord, NH

10:53 PM EST on January 18, 2017 (GMT -0500)
Concord Municipal

Weather History for KCON - November, 2013

Change the Weather History Date:

Saturday, November 2, 2013

  Actual Average Record
Temperature  
Mean Temperature 50 °F 43 °F  
Max Temperature 66 °F 54 °F 80 °F (1950)
Min Temperature 34 °F 32 °F 16 °F (1992)
Degree Days  
Heating Degree Days 15 22  
Month to date heating degree days 24 44  
Since 1 July heating degree days 739 803  
Cooling Degree Days 0 0  
Month to date cooling degree days 0 0  
Year to date cooling degree days 537 452  
Moisture  
Dew Point 40 °F    
Average Humidity 69    
Maximum Humidity 100    
Minimum Humidity 37    
Precipitation  
Precipitation 0.03 in 0.13 in 2.23 in (1940)
Month to date precipitation 0.27 0.26  
Year to date precipitation 34.65 33.95  
Snow  
Snow 0.00 in 0.00 in 1.00 in (1868)
Month to date snowfall 0.0 0.0  
Since 1 July snowfall T T  
Since 1 September snowfall T T  
Snow Depth 0.00 in    
Sea Level Pressure  
Sea Level Pressure 29.66 in    
Wind  
Wind Speed 3 mph (NW)    
Max Wind Speed 15 mph    
Max Gust Speed 20 mph    
Visibility 9 miles    
Events Rain    
T = Trace of Precipitation, MM = Missing Value Source: NWS Daily Summary

Daily Weather History Graph

Daily Weather History Graph

Search for Another Location

Airport or City:

Trip Planner

Search our weather history database for the weather conditions in past years. The results will help you decide how hot, cold, wet, or windy it might be!

Date:

Astronomy

Nov. 02, 2013 Rise Set
Actual Time 7:22 AM EDT 5:36 PM EDT
Civil Twilight 6:52 AM EDT 6:05 PM EDT
Nautical Twilight 6:19 AM EDT 6:39 PM EDT
Astronomical Twilight 5:45 AM EDT 7:12 PM EDT
Moon 6:15 AM EDT (11/2) 5:06 PM EDT (11/2)
Length of Visible Light 11h 13m
Length of Day
10h 13m
Waning Crescent, 1% of the Moon is Illuminated
Nov 2
Waning Crescent
Nov 3
New
Nov 10
First Quarter
Nov 17
Full
Nov 25
Last Quarter

Hourly Weather History & Observations

Time (EDT) Temp. Windchill Dew Point Humidity Pressure Visibility Wind Dir Wind Speed Gust Speed Precip Events Conditions
12:51 AM 43.0 °F - 42.1 °F 97% 29.65 in 10.0 mi Calm Calm - N/A   Clear
1:51 AM 39.0 °F - 39.0 °F 100% 29.65 in 9.0 mi Calm Calm - N/A   Clear
2:51 AM 39.0 °F - 37.9 °F 96% 29.62 in 10.0 mi Calm Calm - N/A   Clear
3:51 AM 37.0 °F - 37.0 °F 100% 29.65 in 10.0 mi Calm Calm - N/A   Clear
4:51 AM 37.9 °F - 37.9 °F 100% 29.64 in 6.0 mi Calm Calm - N/A   Clear
5:51 AM 37.0 °F 34.5 °F 36.0 °F 96% 29.67 in 8.0 mi NNE 3.5 mph - N/A   Clear
6:51 AM 36.0 °F - 36.0 °F 100% 29.67 in 4.0 mi Calm Calm - N/A   Scattered Clouds
7:51 AM 37.0 °F - 36.0 °F 96% 29.69 in 6.0 mi Calm Calm - N/A   Overcast
8:51 AM 42.1 °F - 41.0 °F 96% 29.69 in 9.0 mi Calm Calm - N/A   Partly Cloudy
9:51 AM 46.9 °F - 43.0 °F 86% 29.69 in 10.0 mi Calm Calm - N/A   Mostly Cloudy
10:51 AM 52.0 °F - 42.1 °F 69% 29.67 in 10.0 mi Calm Calm - N/A   Mostly Cloudy
11:51 AM 57.9 °F - 42.1 °F 56% 29.65 in 10.0 mi WSW 4.6 mph - N/A   Clear
12:51 PM 61.0 °F - 39.9 °F 46% 29.63 in 10.0 mi WNW 4.6 mph - N/A   Clear
1:51 PM 63.0 °F - 39.9 °F 43% 29.61 in 10.0 mi Variable 4.6 mph - N/A   Clear
2:51 PM 64.0 °F - 37.9 °F 38% 29.60 in 10.0 mi Calm Calm - N/A   Partly Cloudy
3:51 PM 63.0 °F - 39.0 °F 41% 29.60 in 10.0 mi West 5.8 mph - N/A   Mostly Cloudy
4:51 PM 61.0 °F - 39.0 °F 44% 29.61 in 10.0 mi NW 4.6 mph - N/A   Overcast
5:51 PM 57.9 °F - 39.9 °F 51% 29.63 in 10.0 mi Calm Calm - N/A   Overcast
6:51 PM 54.0 °F - 43.0 °F 66% 29.64 in 10.0 mi Calm Calm - N/A   Overcast
7:51 PM 53.1 °F - 44.1 °F 71% 29.70 in 10.0 mi West 9.2 mph - 0.00 in   Overcast
8:51 PM 50.0 °F - 45.0 °F 83% 29.71 in 6.0 mi West 6.9 mph - 0.01 in Rain Light Rain
9:51 PM 46.0 °F - 46.0 °F 100% 29.73 in 7.0 mi Calm Calm - 0.02 in   Scattered Clouds
10:51 PM 46.0 °F 44.8 °F 46.0 °F 100% 29.74 in 5.0 mi NNW 3.5 mph - N/A   Overcast
11:51 PM 45.0 °F 40.1 °F 42.1 °F 90% 29.76 in 10.0 mi NNW 9.2 mph - N/A   Scattered Clouds